Regional Weather Roundup
Issued by NWS Grand Forks, ND

Home | Current Version | Previous Version | Graphics & Text | Print | Product List | Glossary On
Versions: 1 2 3 4 5 6 7 8 9 10 11 12 13 14 15 16 17 18 19 20 21 22 23 24 25 26 27 28 29 30 31 32 33 34 35 36 37 38 39 40 41 42 43 44 45 46 47 48 49 50
000
ASUS43 KFGF 240610
RWRFGF
PRAIRIE TO PINES  WEATHER ROUNDUP
NATIONAL WEATHER SERVICE EASTERN NORTH DAKOTA/GRAND FORKS ND
1200 AM CST TUE JAN 24 2017

 **SATELLITE DATA USED TO AUGMENT SKY COVER AT AUTOMATED STATIONS**
 *****  WEATHER ACROSS EASTERN NORTH DAKOTA  *****

CITY           SKY/WX    TMP DP  RH WIND       PRES   REMARKS
GRAND FORKS    CLOUDY    26  19  74 W17G26    29.84R WCI  13
6HR MIN TEMP:  26; 6HR MAX TEMP:  31;

GRAND FRKS AFB CLOUDY    25  19  79 W15       29.84R WCI  12
DEVILS LAKE    CLOUDY    22  19  89 W14       29.81R WCI   9
6HR MIN TEMP:  22; 6HR MAX TEMP:  23;

FARGO          CLOUDY    33  25  72 W7        29.86R
WAHPETON ARPT  CLOUDY    32  28  86 NW5       29.86R
$$

 ***** WEATHER ACROSS CENTRAL AND WESTERN NORTH DAKOTA  *****

CITY           SKY/WX    TMP DP  RH WIND       PRES   REMARKS
BISMARCK       CLOUDY    29  25  85 W3        29.84R
6HR MIN TEMP:  29; 6HR MAX TEMP:  31;

MINOT          CLOUDY    24  18  77 W12       29.81R WCI  13
6HR MIN TEMP:  23; 6HR MAX TEMP:  24;

JAMESTOWN      CLOUDY    28  24  85 W6        29.82R WCI  22
6HR MIN TEMP:  28; 6HR MAX TEMP:  29;

MINOT AFB      NOT AVBL
GARRISON         N/A     21  17  84 W9        29.82R WCI  11
WILLISTON      CLOUDY    22  19  89 W8        29.84S WCI  12
6HR MIN TEMP:  20; 6HR MAX TEMP:  22; 6HR PCP: TRACE;

DICKINSON      CLOUDY    23  21  92 W6        29.77S FOG     WCI  16
6HR MIN TEMP:  22; 6HR MAX TEMP:  23;

HETTINGER      FOG       21  19  92 N3        29.79S VSB 3/4
6HR MIN TEMP:  21; 6HR MAX TEMP:  21;

$$

 *****  OTHER AIRPORT OBSERVATIONS IN OUR AREA  *****

CITY           SKY/WX    TMP DP  RH WIND       PRES   REMARKS
WALHALLA       NOT AVBL
GRAFTON AIRPOR CLOUDY    27  23  86 SW13      29.84R WCI  16
VALLEY CITY AR CLOUDY    28  28 100 W8        29.84S WCI  20
CANDO          NOT AVBL
CAVALIER APRT  CLOUDY    27  23  86 W10       29.80R WCI  17
GWINNER        CLOUDY    32  28  86 CALM      29.85R
SHEYENNE NWR     N/A     29  23  79 N3        29.95S
ROLLA            N/A    N/A N/A N/A MISG        N/A
 ***** THE ABOVE OBSERVATIONS ARE NON NWS ARE NOT QUALITY
       CONTROLLED AND MAY MIS-REPORT RAIN FOR SNOW...
$$

  *****  WEATHER ACROSS NORTHERN MINNESOTA  *****

CITY           SKY/WX    TMP DP  RH WIND       PRES   REMARKS
FLAG ISLAND    CLOUDY    27  23  86 SW7       29.78S WCI  19
WARROAD        CLOUDY    28  23  80 SW10      29.80R WCI  19
ROSEAU         CLOUDY    27  21  80 SW9       29.80R WCI  17
HALLOCK        CLOUDY    27  25  93 SW12      29.81R WCI  16
THF RVR FALLS  CLOUDY    25  21  85 W14       29.83S WCI  13
6HR MIN TEMP:  25; 6HR MAX TEMP:  29;

BAUDETTE       CLOUDY    28  22  78 SW9       29.79S WCI  19
6HR MIN TEMP:  28; 6HR MAX TEMP:  30;

WASKISH        CLOUDY    28  25  86 W8        29.81S WCI  20
CROOKSTON      CLOUDY    27  23  86 NW7       29.85R WCI  19
GREENBUSH NDAW   N/A     25  23  93 SW8         N/A  WCI  16
$$
  *****  WEATHER ACROSS CENTRAL AND WEST MINNESOTA  *****

CITY           SKY/WX    TMP DP  RH WIND       PRES   REMARKS
FOSSTON        CLOUDY    27  23  86 W10       29.83R WCI  17
BEMIDJI        CLOUDY    28  23  82 SW8       29.81S WCI  19
PARK RAPIDS    CLOUDY    30  23  75 W5        29.81R
6HR MIN TEMP:  30; 6HR MAX TEMP:  31;

ELBOW LAKE     CLOUDY    30  28  93 W5        29.85R FOG
6HR MIN TEMP:  30; 6HR MAX TEMP:  31;

WADENA         CLOUDY    28  25  86 W3        29.82S
DETROIT LAKES  CLOUDY    30  27  86 CALM      29.84R
MOORHEAD       CLOUDY    30  25  80 W6        29.87R WCI  24
FERGUS FALLS   CLOUDY    30  30 100 NW5       29.88S
MORRIS MN      CLOUDY    30  27  86 CALM      29.84S
STAPLES        CLOUDY    28  27  93 CALM      29.83R
$$
  *****  WEATHER ELSEWHERE ACROSS MINNESOTA  *****

CITY           SKY/WX    TMP DP  RH WIND       PRES   REMARKS
DULUTH         FLURRIES  32  31  96 CALM      29.79F
6HR MIN TEMP:  32; 6HR MAX TEMP:  34; 6HR PCP: TRACE;

INTRNTL FALLS  CLOUDY    29  23  78 CALM      29.80S
6HR MIN TEMP:  29; 6HR MAX TEMP:  32;

ELY            LGT SNOW  30  30 100 CALM      29.79S
CLOQUET        CLOUDY    30  28  93 CALM      29.80S
WHEATON        CLOUDY    30  27  86 CALM      29.88R
BRAINERD       CLOUDY    31  24  75 SW3       29.83R
6HR MIN TEMP:  30; 6HR MAX TEMP:  31;

HIBBING        CLOUDY    30  27  88 CALM      29.79F
6HR MIN TEMP:  30; 6HR MAX TEMP:  31;

ALEXANDRIA     CLOUDY    30  25  81 CALM      29.84R
6HR MIN TEMP:  30; 6HR MAX TEMP:  30;

SAINT CLOUD    CLOUDY    31  26  82 W5        29.84S
6HR MIN TEMP:  31; 6HR MAX TEMP:  32;

MINNEAPOLIS    CLOUDY    33  27  78 NW3       29.86R
6HR MIN TEMP:  33; 6HR MAX TEMP:  34;

$$

  *****  WEATHER ACROSS SOUTH DAKOTA  *****

CITY           SKY/WX    TMP DP  RH WIND       PRES   REMARKS
SIOUX FALLS    CLOUDY    32  30  92 SE8       29.81S WCI  25
6HR MIN TEMP:  31; 6HR MAX TEMP:  32;

BROOKINGS      CLOUDY    30  27  88 SE6       29.80F WCI  24
WATERTOWN      CLOUDY    28  26  92 SE6       29.79F WCI  22
6HR MIN TEMP:  28; 6HR MAX TEMP:  29;

HURON          CLOUDY    31  29  92 SE3       29.80F
6HR MIN TEMP:  31; 6HR MAX TEMP:  31;

SISSETON         N/A     32  29  88 CALM      29.84R
ABERDEEN       CLOUDY    29  25  85 N3        29.84S FOG
6HR MIN TEMP:  29; 6HR MAX TEMP:  30; 6HR PCP: TRACE;

MITCHELL       CLOUDY    32  29  88 SE6       29.81R
PIERRE         CLOUDY    29  26  89 E10       29.75F WCI  20
6HR MIN TEMP:  29; 6HR MAX TEMP:  30;

MOBRIDGE       FLURRIES  28  23  81 NE8       29.78S WCI  20
RAPID CITY     CLOUDY    23  21  92 N15       29.71S FOG     WCI  10
6HR MIN TEMP:  22; 6HR MAX TEMP:  23;

$$

  *****  SOME WEATHER IN NEARBY STATES *****

CITY           SKY/WX    TMP DP  RH WIND       PRES   REMARKS
GLASGOW MT     CLOUDY    20  16  84 NW7       29.84S WCI  11
6HR MIN TEMP:  20; 6HR MAX TEMP:  23;

GREAT FALLS MT FOG       17  15  92 N3        29.83R VSB 1/4
6HR MIN TEMP:  17; 6HR MAX TEMP:  20;

CHEYENNE WY    CLOUDY    30  29  96 SE9       29.53F WCI  22
6HR MIN TEMP:  30; 6HR MAX TEMP:  37; 6HR PCP:  0.10;

SCOTTSBLUFF NE CLOUDY    30  26  85 NE16      29.57R WCI  19
6HR MIN TEMP:  30; 6HR MAX TEMP:  40; 6HR PCP: TRACE;

OMAHA NE       CLOUDY    31  26  82 E5        29.84F
6HR MIN TEMP:  31; 6HR MAX TEMP:  34;

DES MOINES IA  CLOUDY    33  28  81 S3        29.87F
6HR MIN TEMP:  33; 6HR MAX TEMP:  35;

DAVENPORT IA   CLOUDY    33  31  92 W6        29.86S
6HR MIN TEMP:  33; 6HR MAX TEMP:  37;

CHICAGO IL     CLOUDY    38  34  85 N7        29.80F
6HR MIN TEMP:  36; 6HR MAX TEMP:  41;

EAU CLAIRE WI  CLOUDY    33  32  96 CALM      29.83S FOG
6HR MIN TEMP:  33; 6HR MAX TEMP:  34;

LA CROSSE WI   CLOUDY    37  32  82 CALM      29.86R
6HR MIN TEMP:  35; 6HR MAX TEMP:  37;

$$

  *****  SOME NATIONAL WEATHER *****

CITY           SKY/WX    TMP DP  RH WIND       PRES   REMARKS
LA GUARDIA NY  RAIN      39  35  86 NE25G36   29.41F FOG
6HR MIN TEMP:  38; 6HR MAX TEMP:  39; 6HR PCP:  0.74;

RALEIGH NC     LGT RAIN  43  36  76 NW9       29.49S
6HR MIN TEMP:  43; 6HR MAX TEMP:  50; 6HR PCP: TRACE;

ATLANTA GA     MOCLDY    50  43  77 NW20G26   29.73R
6HR MIN TEMP:  49; 6HR MAX TEMP:  53;

NEW ORLEANS LA FAIR      53  45  74 CALM      29.89F
6HR MIN TEMP:  51; 6HR MAX TEMP:  62;

OKLAHOMA CITY  FAIR      47  33  58 SE12      29.66F
6HR MIN TEMP:  47; 6HR MAX TEMP:  54;

ALBUQUERQUE NM MOCLDY    45  29  53 SW8       29.64R
6HR MIN TEMP:  44; 6HR MAX TEMP:  57;

SALT LAKE CITY FLURRIES  32  27  81 N6        29.62S
6HR MIN TEMP:  32; 6HR MAX TEMP:  34; 6HR PCP:  0.03;

LOS ANGELES CA FAIR      50  39  66 VRB5      29.90R
6HR MIN TEMP:  50; 6HR MAX TEMP:  54;

BOISE ID       CLOUDY  C1F1C2F2C3F3C4F4C5F5C6F6C7F7C8F8C9F9CaFaCbFbCcFcCd!



USA.gov is the U.S. government's official web portal to all federal, state and local government web resources and services.